START_TIME,STEP,MOV.,H8,t_acc.,H43,t_acc.,M25,t_acc.,H9,t_acc.
1981-08-28 03:00:30.240 ,7,0,0.,12.0,0.,12.0,0.,12.0,0.,12.0
1981-08-28 03:00:42.240 ,7,0,0.,12.0,0.,12.0,0.,12.0,0.,12.0
1981-08-28 03:00:54.240 ,7,0,0.,12.0,0.,12.0,0.,12.0,0.,12.0
1981-08-28 03:01:06.240 ,7,0,0.,12.0,0.,12.0,0.,12.0,0.,12.0
1981-08-28 03:01:18.240 ,7,0,0.,12.0,0.,12.0,0.,12.0,0.,12.0
1981-08-28 03:01:30.240 ,7,0,0.,12.0,0.,12.0,0.,12.0,0.,12.0
1981-08-28 03:01:42.240 ,6,0,0.,12.0,0.,12.0,0.,12.0,0.,12.0
1981-08-28 03:01:54.240 ,6,0,0.,12.0,0.,12.0,0.,12.0,0.,12.0
1981-08-28 03:02:06.240 ,6,0,0.,12.0,0.,12.0,0.,12.0,0.,12.0
1981-08-28 03:02:18.240 ,6,0,0.,12.0,0.,12.0,0.,12.0,0.,12.0
1981-08-28 03:02:30.240 ,5,0,0.,12.0,0.,12.0,0.,12.0,0.,12.0
1981-08-28 03:02:42.240 ,5,0,0.,12.0,0.,12.0,0.,12.0,0.,12.0
1981-08-28 03:02:54.240 ,5,0,0.,12.0,0.,12.0,0.,12.0,0.,12.0
1981-08-28 03:03:06.240 ,5,0,0.,12.0,0.,12.0,0.,12.0,0.,12.0
1981-08-28 03:03:18.240 ,4,0,0.,12.0,0.,12.0,0.,12.0,0.,12.0
1981-08-28 03:03:30.240 ,4,0,0.,12.0,0.,12.0,0.,12.0,0.,12.0
1981-08-28 03:03:42.240 ,4,0,0.,12.0,0.,12.0,0.,12.0,0.,12.0
1981-08-28 03:03:54.240 ,4,0,0.,12.0,0.,12.0,0.,12.0,0.,12.0
1981-08-28 03:04:06.240 ,3,0,0.,12.0,0.,12.0,0.,12.0,0.,12.0
1981-08-28 03:04:18.240 ,3,0,0.,12.0,0.,12.0,0.,12.0,0.,12.0
1981-08-28 03:04:30.240 ,3,0,0.,12.0,0.,12.0,0.,12.0,0.,12.0
1981-08-28 03:04:42.240 ,3,0,0.,12.0,0.,12.0,0.,12.0,0.,12.0
1981-08-28 03:04:54.240 ,2,0,0.,12.0,0.,12.0,0.,12.0,0.,12.0
1981-08-28 03:05:06.240 ,2,0,0.,12.0,0.,12.0,0.,12.0,0.,12.0
1981-08-28 03:05:18.240 ,2,0,0.,12.0,0.,12.0,0.,12.0,0.,12.0
1981-08-28 03:05:30.240 ,2,0,0.,12.0,0.,12.0,0.,12.0,0.,12.0
1981-08-28 03:05:42.240 ,1,0,0.,12.0,0.,12.0,0.,12.0,0.,12.0
1981-08-28 03:05:54.240 ,1,0,0.,12.0,0.,12.0,0.,12.0,0.,12.0
1981-08-28 03:06:06.240 ,1,0,0.,12.0,0.,12.0,0.,12.0,0.,12.0
1981-08-28 03:06:18.240 ,1,0,0.,12.0,0.,12.0,0.,12.0,0.,12.0
1981-08-28 03:06:30.240 ,0,0,0.,12.0,0.,12.0,0.,12.0,0.,12.0
1981-08-28 03:06:42.240 ,0,0,0.,12.0,0.,12.0,0.,12.0,0.,12.0
1981-08-28 03:06:54.240 ,0,0,0.,12.0,0.,12.0,0.,12.0,0.,12.0
1981-08-28 03:07:06.240 ,0,0,0.,12.0,0.,12.0,0.,12.0,0.,12.0
1981-08-28 03:09:42.240 ,0,0,0.,12.0,0.,12.0,0.,12.0,0.,12.0
1981-08-28 03:09:54.240 ,0,0,0.,12.0,0.,12.0,0.,12.0,0.,12.0
1981-08-28 03:10:06.240 ,0,0,0.,12.0,0.,12.0,0.,12.0,0.,12.0
1981-08-28 03:10:18.240 ,0,0,0.,12.0,0.,12.0,0.,12.0,0.,12.0
1981-08-28 03:10:30.240 ,4,0,0.,12.0,0.,12.0,0.,12.0,0.,12.0
1981-08-28 03:10:42.240 ,4,0,0.,12.0,0.,12.0,0.,12.0,0.,12.0
1981-08-28 03:10:54.240 ,4,0,0.,12.0,0.,12.0,0.,12.0,0.,12.0
1981-08-28 03:11:06.240 ,4,0,0.,12.0,0.,12.0,0.,12.0,0.,12.0
1981-08-28 03:11:18.240 ,5,0,0.,12.0,0.,12.0,0.,12.0,0.,12.0
1981-08-28 03:11:30.240 ,5,0,0.,12.0,0.,12.0,0.,12.0,0.,12.0
1981-08-28 03:11:42.240 ,5,0,0.,12.0,0.,12.0,0.,12.0,0.,12.0
1981-08-28 03:11:54.240 ,5,0,0.,12.0,0.,12.0,0.,12.0,0.,12.0
1981-08-28 03:12:54.240 ,0,0,0.,12.0,0.,12.0,0.,12.0,0.,12.0
1981-08-28 03:13:06.240 ,0,0,0.,12.0,0.,12.0,0.,12.0,0.,12.0
1981-08-28 03:13:18.240 ,0,0,0.,12.0,0.,12.0,0.,12.0,0.,12.0
1981-08-28 03:13:30.240 ,0,0,0.,12.0,0.,12.0,0.,12.0,0.,12.0
1981-08-28 03:15:18.240 ,0,0,0.,12.0,0.,12.0,0.,12.0,0.,12.0
1981-08-28 03:15:30.240 ,0,0,0.,12.0,0.,12.0,0.,12.0,0.,12.0
1981-08-28 03:15:42.240 ,2,0,0.,12.0,0.,12.0,0.,12.0,0.,12.0
1981-08-28 03:15:54.240 ,2,0,0.,12.0,0.,12.0,0.,12.0,0.,12.0
1981-08-28 03:16:06.240 ,1,0,0.,12.0,0.,12.0,0.,12.0,0.,12.0
1981-08-28 03:16:18.240 ,1,0,0.,12.0,0.,12.0,0.,12.0,0.,12.0
1981-08-28 03:16:30.240 ,0,0,0.,12.0,0.,12.0,0.,12.0,0.,12.0
1981-08-28 03:16:42.240 ,0,0,0.,12.0,0.,12.0,0.,12.0,0.,12.0
1981-08-28 03:16:54.240 ,0,0,0.,12.0,0.,12.0,0.,12.0,0.,12.0
1981-08-28 03:17:06.240 ,0,0,0.,12.0,0.,12.0,0.,12.0,0.,12.0
1981-08-28 03:17:18.240 ,1,0,0.,12.0,0.,12.0,0.,12.0,0.,12.0
1981-08-28 03:17:30.240 ,1,0,0.,12.0,0.,12.0,0.,12.0,0.,12.0
1981-08-28 03:17:42.240 ,2,0,0.,12.0,0.,12.0,0.,12.0,0.,12.0
1981-08-28 03:17:54.240 ,2,0,0.,12.0,0.,12.0,0.,12.0,0.,12.0
1981-08-28 03:18:06.240 ,3,0,0.,12.0,0.,12.0,0.,12.0,0.,12.0
1981-08-28 03:18:18.240 ,3,0,0.,12.0,0.,12.0,0.,12.0,0.,12.0
1981-08-28 03:18:30.240 ,4,0,0.,12.0,0.,12.0,0.,12.0,0.,12.0
1981-08-28 03:18:42.240 ,4,0,0.,12.0,0.,12.0,0.,12.0,0.,12.0
1981-08-28 03:18:54.240 ,5,0,0.,12.0,0.,12.0,0.,12.0,0.,12.0
1981-08-28 03:19:06.240 ,5,0,0.,12.0,0.,12.0,0.,12.0,0.,12.0
1981-08-28 03:19:18.240 ,6,0,0.,12.0,0.,12.0,0.,12.0,0.,12.0
1981-08-28 03:19:30.240 ,6,0,0.,12.0,0.,12.0,0.,12.0,0.,12.0
1981-08-28 03:19:42.240 ,7,0,0.,12.0,0.,12.0,0.,12.0,0.,12.0
1981-08-28 03:19:54.240 ,7,0,0.,12.0,0.,12.0,0.,12.0,0.,12.0
1981-08-28 03:24:21.240 ,0,0,,0,,0,,0,,0
1981-08-28 03:24:33.240 ,0,0,0.,12.0,0.,12.0,0.,12.0,0.,12.0
1981-08-28 03:24:30.240 ,0,0,0.,12.0,0.,12.0,0.,12.0,0.,12.0
1981-08-28 03:24:42.240 ,0,0,0.,12.0,0.,12.0,0.,12.0,0.,12.0
1981-08-28 03:24:54.240 ,1,0,0.,12.0,0.,12.0,0.,12.0,0.,12.0
1981-08-28 03:25:06.240 ,1,0,0.,12.0,0.,12.0,0.,12.0,0.,12.0
1981-08-28 03:25:18.240 ,1,0,0.,12.0,0.,12.0,0.,12.0,0.,12.0
1981-08-28 03:25:30.240 ,1,0,0.,12.0,0.,12.0,0.,12.0,0.,12.0
1981-08-28 03:25:42.240 ,0,0,0.,12.0,0.,12.0,0.,12.0,0.,12.0
1981-08-28 03:25:54.240 ,0,0,0.,12.0,0.,12.0,0.,12.0,0.,12.0
1981-08-28 03:26:06.240 ,0,0,0.,12.0,0.,12.0,0.,12.0,0.,12.0
1981-08-28 03:26:18.240 ,0,0,0.,12.0,0.,12.0,0.,12.0,0.,12.0
1981-08-28 03:26:30.240 ,0,0,0.,12.0,0.,12.0,0.,12.0,0.,12.0
1981-08-28 03:26:42.240 ,0,0,0.,12.0,0.,12.0,0.,12.0,0.,12.0
1981-08-28 03:26:54.240 ,0,0,0.,12.0,0.,12.0,0.,12.0,0.,12.0
1981-08-28 03:27:06.240 ,0,0,0.,12.0,0.,12.0,0.,12.0,0.,12.0
1981-08-28 03:27:18.240 ,1,0,0.,12.0,0.,12.0,0.,12.0,0.,12.0
1981-08-28 03:27:30.240 ,1,0,0.,12.0,0.,12.0,0.,12.0,0.,12.0
1981-08-28 03:27:42.240 ,1,0,0.,12.0,0.,12.0,0.,12.0,0.,12.0
1981-08-28 03:27:54.240 ,1,0,0.,12.0,0.,12.0,0.,12.0,0.,12.0
1981-08-28 03:28:06.240 ,2,0,0.,12.0,0.,12.0,0.,12.0,0.,12.0
1981-08-28 03:28:18.240 ,2,0,0.,12.0,0.,12.0,0.,12.0,0.,12.0
1981-08-28 03:28:30.240 ,2,0,0.,12.0,0.,12.0,0.,12.0,0.,12.0
1981-08-28 03:28:42.240 ,2,0,0.,12.0,0.,12.0,0.,12.0,0.,12.0
1981-08-28 03:28:54.240 ,3,0,0.,12.0,0.,12.0,0.,12.0,0.,12.0
1981-08-28 03:29:06.240 ,3,0,0.,12.0,0.,12.0,0.,12.0,0.,12.0
1981-08-28 03:29:18.240 ,3,0,0.,12.0,0.,12.0,0.,12.0,0.,12.0
1981-08-28 03:29:30.240 ,3,0,0.,12.0,0.,12.0,0.,12.0,0.,12.0
1981-08-28 03:29:42.240 ,4,1,0.,12.0,0.,12.0,0.,12.0,0.,12.0
1981-08-28 03:29:54.240 ,4,1,,0,,0,,0,,0
1981-08-28 03:30:06.240 ,4,0,0.,12.0,0.,12.0,0.,12.0,0.,12.0
1981-08-28 03:30:18.240 ,4,0,0.,12.0,0.,12.0,0.,12.0,0.,12.0
1981-08-28 03:30:30.240 ,5,0,0.,12.0,0.,12.0,0.,12.0,0.,12.0
1981-08-28 03:30:42.240 ,5,0,0.,12.0,0.,12.0,0.,12.0,0.,12.0
1981-08-28 03:30:54.240 ,5,0,0.,12.0,0.,12.0,0.,12.0,0.,12.0
1981-08-28 03:31:06.240 ,5,0,0.,12.0,0.,12.0,0.,12.0,0.,12.0
1981-08-28 03:31:18.240 ,6,0,0.,12.0,0.,12.0,0.,12.0,0.,12.0
1981-08-28 03:31:30.240 ,6,0,0.,12.0,0.,12.0,0.,12.0,0.,12.0
1981-08-28 03:31:42.240 ,6,0,0.,12.0,0.,12.0,0.,12.0,0.,12.0
1981-08-28 03:31:54.240 ,6,0,0.,12.0,0.,12.0,0.,12.0,0.,12.0
1981-08-28 03:32:06.240 ,7,0,0.,12.0,0.,12.0,0.,12.0,0.,12.0
1981-08-28 03:32:18.240 ,7,0,0.,12.0,0.,12.0,0.,12.0,0.,12.0
1981-08-28 03:32:30.240 ,7,0,0.,12.0,0.,12.0,0.,12.0,0.,12.0
1981-08-28 03:32:42.240 ,7,0,0.,12.0,0.,12.0,0.,12.0,0.,12.0
1981-08-28 03:32:54.240 ,7,0,0.,12.0,0.,12.0,0.,12.0,0.,12.0
1981-08-28 03:33:06.240 ,7,0,0.,12.0,0.,12.0,0.,12.0,0.,12.0
1981-08-28 03:33:18.240 ,6,0,0.,12.0,0.,12.0,0.,12.0,0.,12.0
1981-08-28 03:33:30.240 ,6,0,0.,12.0,0.,12.0,0.,12.0,0.,12.0
1981-08-28 03:33:42.240 ,5,0,0.,12.0,0.,12.0,0.,12.0,0.,12.0
1981-08-28 03:33:54.240 ,5,0,0.,12.0,0.,12.0,0.,12.0,0.,12.0
1981-08-28 03:34:06.240 ,4,0,0.,12.0,0.,12.0,0.,12.0,0.,12.0
1981-08-28 03:34:18.240 ,4,0,0.,12.0,0.,12.0,0.,12.0,0.,12.0
1981-08-28 03:34:30.240 ,3,0,0.,12.0,0.,12.0,0.,12.0,0.,12.0
1981-08-28 03:34:42.240 ,3,0,0.,12.0,0.,12.0,0.,12.0,0.,12.0
1981-08-28 03:34:54.240 ,2,0,0.,12.0,0.,12.0,0.,12.0,0.,12.0
1981-08-28 03:35:06.240 ,2,0,0.,12.0,0.,12.0,0.,12.0,0.,12.0
1981-08-28 03:35:18.240 ,1,0,0.,12.0,0.,12.0,0.,12.0,0.,12.0
1981-08-28 03:35:30.240 ,1,0,0.,12.0,0.,12.0,0.,12.0,0.,12.0
1981-08-28 03:35:42.240 ,0,0,0.,12.0,0.,12.0,0.,12.0,0.,12.0
1981-08-28 03:35:54.240 ,0,0,0.,12.0,0.,12.0,0.,12.0,0.,12.0
1981-08-28 03:36:54.240 ,0,0,0.,12.0,0.,12.0,0.,12.0,0.,12.0
1981-08-28 03:37:06.240 ,0,0,0.,12.0,0.,12.0,0.,12.0,0.,12.0
1981-08-28 03:37:18.240 ,3,0,0.,12.0,0.,12.0,0.,12.0,0.,12.0
1981-08-28 03:37:30.240 ,3,0,0.,12.0,0.,12.0,0.,12.0,0.,12.0
1981-08-28 03:37:42.240 ,4,0,0.,12.0,0.,12.0,0.,12.0,0.,12.0
1981-08-28 03:37:54.240 ,4,0,0.,12.0,0.,12.0,0.,12.0,0.,12.0
1981-08-28 03:38:06.240 ,5,0,0.,12.0,0.,12.0,0.,12.0,0.,12.0
1981-08-28 03:38:18.240 ,5,0,0.,12.0,0.,12.0,0.,12.0,0.,12.0
1981-08-28 03:38:30.240 ,6,0,0.,12.0,0.,12.0,0.,12.0,0.,12.0
1981-08-28 03:38:42.240 ,6,0,0.,12.0,0.,12.0,0.,12.0,0.,12.0
1981-08-28 03:38:54.240 ,7,0,0.,12.0,0.,12.0,0.,12.0,0.,12.0
1981-08-28 03:39:06.240 ,7,0,0.,12.0,0.,12.0,0.,12.0,0.,12.0
1981-08-28 03:39:18.240 ,7,0,0.,12.0,0.,12.0,0.,12.0,0.,12.0
1981-08-28 03:39:30.240 ,7,0,0.,12.0,0.,12.0,0.,12.0,0.,12.0
1981-08-28 03:39:42.240 ,7,0,0.,12.0,0.,12.0,0.,12.0,0.,12.0
1981-08-28 03:39:54.240 ,7,0,0.,12.0,0.,12.0,0.,12.0,0.,12.0
1981-08-28 03:40:06.240 ,6,0,0.,12.0,0.,12.0,0.,12.0,0.,12.0
1981-08-28 03:40:18.240 ,6,0,0.,12.0,0.,12.0,0.,12.0,0.,12.0
1981-08-28 03:40:30.240 ,6,0,0.,12.0,0.,12.0,0.,12.0,0.,12.0
1981-08-28 03:40:42.240 ,6,0,0.,12.0,0.,12.0,0.,12.0,0.,12.0
1981-08-28 03:40:54.240 ,5,0,0.,12.0,0.,12.0,0.,12.0,0.,12.0
1981-08-28 03:41:06.240 ,5,0,0.,12.0,0.,12.0,0.,12.0,0.,12.0
1981-08-28 03:41:18.240 ,5,0,0.,12.0,0.,12.0,0.,12.0,0.,12.0
1981-08-28 03:41:30.240 ,5,0,0.,12.0,0.,12.0,0.,12.0,0.,12.0
1981-08-28 03:41:42.240 ,4,0,0.,12.0,0.,12.0,0.,12.0,0.,12.0
1981-08-28 03:41:54.240 ,4,0,0.,12.0,0.,12.0,0.,12.0,0.,12.0
1981-08-28 03:42:06.240 ,4,0,0.,12.0,0.,12.0,0.,12.0,0.,12.0
1981-08-28 03:42:18.240 ,4,0,0.,12.0,0.,12.0,0.,12.0,0.,12.0
1981-08-28 03:42:30.240 ,3,0,0.,12.0,0.,12.0,0.,12.0,0.,12.0
1981-08-28 03:42:42.240 ,3,0,0.,12.0,0.,12.0,0.,12.0,0.,12.0
1981-08-28 03:42:54.240 ,3,0,0.,12.0,0.,12.0,0.,12.0,0.,12.0
1981-08-28 03:43:06.240 ,3,0,0.,12.0,0.,12.0,0.,12.0,0.,12.0
1981-08-28 03:43:18.240 ,2,0,0.,12.0,0.,12.0,0.,12.0,0.,12.0
1981-08-28 03:43:30.240 ,2,0,0.,12.0,0.,12.0,0.,12.0,0.,12.0
1981-08-28 03:43:42.240 ,2,0,0.,12.0,0.,12.0,0.,12.0,0.,12.0
1981-08-28 03:43:54.240 ,2,0,0.,12.0,0.,12.0,0.,12.0,0.,12.0
1981-08-28 03:44:06.240 ,1,0,0.,12.0,0.,12.0,0.,12.0,0.,12.0
1981-08-28 03:44:18.240 ,1,0,0.,12.0,0.,12.0,0.,12.0,0.,12.0
1981-08-28 03:44:30.240 ,1,0,0.,12.0,0.,12.0,0.,12.0,0.,12.0
1981-08-28 03:44:42.240 ,1,0,0.,12.0,0.,12.0,0.,12.0,0.,12.0
1981-08-28 03:44:54.240 ,0,0,0.,12.0,0.,12.0,0.,12.0,0.,12.0
1981-08-28 03:45:06.240 ,0,0,0.,12.0,0.,12.0,0.,12.0,0.,12.0
1981-08-28 03:45:18.240 ,0,0,0.,12.0,0.,12.0,0.,12.0,0.,12.0
1981-08-28 03:45:30.240 ,0,0,0.,12.0,0.,12.0,0.,12.0,0.,12.0
1981-08-28 03:46:30.240 ,0,0,0.,12.0,0.,12.0,0.,12.0,0.,12.0
1981-08-28 03:46:42.240 ,0,0,0.,12.0,0.,12.0,0.,12.0,0.,12.0
1981-08-28 03:46:54.240 ,0,0,0.,12.0,0.,12.0,0.,12.0,0.,12.0
1981-08-28 03:47:06.240 ,0,0,0.,12.0,0.,12.0,0.,12.0,0.,12.0
1981-08-28 03:47:18.240 ,2,0,0.,12.0,0.,12.0,0.,12.0,0.,12.0
1981-08-28 03:47:30.240 ,2,0,0.,12.0,0.,12.0,0.,12.0,0.,12.0
1981-08-28 03:47:42.240 ,2,0,0.,12.0,0.,12.0,0.,12.0,0.,12.0
1981-08-28 03:47:54.240 ,2,0,0.,12.0,0.,12.0,0.,12.0,0.,12.0
1981-08-28 03:48:06.240 ,3,0,0.,12.0,0.,12.0,0.,12.0,0.,12.0
1981-08-28 03:48:18.240 ,3,0,0.,12.0,0.,12.0,0.,12.0,0.,12.0
1981-08-28 03:48:30.240 ,3,0,0.,12.0,0.,12.0,0.,12.0,0.,12.0
1981-08-28 03:48:42.240 ,3,0,0.,12.0,0.,12.0,0.,12.0,0.,12.0
1981-08-28 03:48:54.240 ,4,0,0.,12.0,0.,12.0,0.,12.0,0.,12.0
1981-08-28 03:49:06.240 ,4,0,0.,12.0,0.,12.0,0.,12.0,0.,12.0
1981-08-28 03:49:18.240 ,4,0,0.,12.0,0.,12.0,0.,12.0,0.,12.0
1981-08-28 03:49:30.240 ,4,0,0.,12.0,0.,12.0,0.,12.0,0.,12.0
1981-08-28 03:49:42.240 ,5,0,0.,12.0,0.,12.0,0.,12.0,0.,12.0
1981-08-28 03:49:54.240 ,5,0,0.,12.0,0.,12.0,0.,12.0,0.,12.0
1981-08-28 03:50:06.240 ,5,0,0.,12.0,0.,12.0,0.,12.0,0.,12.0
1981-08-28 03:50:18.240 ,5,0,0.,12.0,0.,12.0,0.,12.0,0.,12.0
1981-08-28 03:50:30.240 ,6,0,0.,12.0,0.,12.0,0.,12.0,0.,12.0
1981-08-28 03:50:42.240 ,6,0,0.,12.0,0.,12.0,0.,12.0,0.,12.0
1981-08-28 03:50:54.240 ,6,0,0.,12.0,0.,12.0,0.,12.0,0.,12.0
1981-08-28 03:51:06.240 ,6,0,0.,12.0,0.,12.0,0.,12.0,0.,12.0
1981-08-28 03:51:18.240 ,7,0,0.,12.0,0.,12.0,0.,12.0,0.,12.0
1981-08-28 03:51:30.240 ,7,0,0.,12.0,0.,12.0,0.,12.0,0.,12.0
1981-08-28 03:51:42.240 ,7,0,0.,12.0,0.,12.0,0.,12.0,0.,12.0
1981-08-28 03:51:54.240 ,7,0,0.,12.0,0.,12.0,0.,12.0,0.,12.0
1981-08-28 03:52:06.240 ,7,0,0.,12.0,0.,12.0,0.,12.0,0.,12.0
1981-08-28 03:52:18.240 ,7,0,0.,12.0,0.,12.0,0.,12.0,0.,12.0
1981-08-28 03:52:30.240 ,6,0,0.,12.0,0.,12.0,0.,12.0,0.,12.0
1981-08-28 03:52:42.240 ,6,0,0.,12.0,0.,12.0,0.,12.0,0.,12.0
1981-08-28 03:52:54.240 ,5,0,0.,12.0,0.,12.0,0.,12.0,0.,12.0
1981-08-28 03:53:06.240 ,5,0,0.,12.0,0.,12.0,0.,12.0,0.,12.0
1981-08-28 03:53:18.240 ,4,0,0.,12.0,0.,12.0,0.,12.0,0.,12.0
1981-08-28 03:53:30.240 ,4,0,0.,12.0,0.,12.0,0.,12.0,0.,12.0
1981-08-28 03:53:42.240 ,3,0,0.,12.0,0.,12.0,0.,12.0,0.,12.0
1981-08-28 03:53:54.240 ,3,0,0.,12.0,0.,12.0,0.,12.0,0.,12.0
1981-08-28 03:54:06.240 ,2,0,0.,12.0,0.,12.0,0.,12.0,0.,12.0
1981-08-28 03:54:18.240 ,2,0,0.,12.0,0.,12.0,0.,12.0,0.,12.0
1981-08-28 03:54:30.240 ,1,0,0.,12.0,0.,12.0,0.,12.0,0.,12.0
1981-08-28 03:54:42.240 ,1,0,0.,12.0,0.,12.0,0.,12.0,0.,12.0
1981-08-28 03:54:54.240 ,0,0,0.,12.0,0.,12.0,0.,12.0,0.,12.0
1981-08-28 03:55:06.240 ,0,0,0.,12.0,0.,12.0,0.,12.0,0.,12.0
1981-08-28 03:55:18.240 ,0,0,0.,12.0,0.,12.0,0.,12.0,0.,12.0
1981-08-28 03:55:30.240 ,0,0,0.,12.0,0.,12.0,0.,12.0,0.,12.0
1981-08-28 03:55:42.240 ,1,0,0.,12.0,0.,12.0,0.,12.0,0.,12.0
1981-08-28 03:55:54.240 ,1,0,0.,12.0,0.,12.0,0.,12.0,0.,12.0
1981-08-28 03:56:06.240 ,2,0,0.,12.0,0.,12.0,0.,12.0,0.,12.0
1981-08-28 03:56:18.240 ,2,0,0.,12.0,0.,12.0,0.,12.0,0.,12.0
1981-08-28 03:56:30.240 ,3,0,0.,12.0,0.,12.0,0.,12.0,0.,12.0
1981-08-28 03:56:42.240 ,3,0,0.,12.0,0.,12.0,0.,12.0,0.,12.0
1981-08-28 03:57:42.240 ,0,0,0.,12.0,0.,12.0,0.,12.0,0.,12.0
1981-08-28 03:57:54.240 ,0,0,0.,12.0,0.,12.0,0.,12.0,0.,12.0
1981-08-28 03:58:06.240 ,7,0,0.,12.0,0.,12.0,0.,12.0,0.,12.0
1981-08-28 03:58:18.240 ,7,0,0.,12.0,0.,12.0,0.,12.0,0.,12.0
1981-08-28 03:58:30.240 ,7,0,0.,12.0,0.,12.0,0.,12.0,0.,12.0
1981-08-28 03:58:42.240 ,7,0,0.,12.0,0.,12.0,0.,12.0,0.,12.0
1981-08-28 03:58:54.240 ,7,0,0.,12.0,0.,12.0,0.,12.0,0.,12.0
1981-08-28 03:59:06.240 ,7,0,0.,12.0,0.,12.0,0.,12.0,0.,12.0
1981-08-28 03:59:18.240 ,6,0,0.,12.0,0.,12.0,0.,12.0,0.,12.0
1981-08-28 03:59:30.240 ,6,0,0.,12.0,0.,12.0,0.,12.0,0.,12.0
1981-08-28 03:59:42.240 ,6,0,0.,12.0,0.,12.0,0.,12.0,0.,12.0
1981-08-28 03:59:54.240 ,6,0,0.,12.0,0.,12.0,0.,12.0,0.,12.0
1981-08-28 04:00:06.240 ,5,0,0.,12.0,0.,12.0,0.,12.0,0.,12.0
1981-08-28 04:00:18.240 ,5,0,0.,12.0,0.,12.0,0.,12.0,0.,12.0
1981-08-28 04:00:30.240 ,5,0,0.,12.0,0.,12.0,0.,12.0,0.,12.0
1981-08-28 04:00:42.240 ,5,0,0.,12.0,0.,12.0,0.,12.0,0.,12.0
1981-08-28 04:00:54.240 ,4,0,0.,12.0,0.,12.0,0.,12.0,0.,12.0
1981-08-28 04:01:06.240 ,4,0,0.,12.0,0.,12.0,0.,12.0,0.,12.0
1981-08-28 04:01:18.240 ,4,0,0.,12.0,0.,12.0,0.,12.0,0.,12.0
1981-08-28 04:01:30.240 ,4,0,0.,12.0,0.,12.0,0.,12.0,0.,12.0
1981-08-28 04:01:42.240 ,3,0,0.,12.0,0.,12.0,0.,12.0,0.,12.0
1981-08-28 04:01:54.240 ,3,0,0.,12.0,0.,12.0,0.,12.0,0.,12.0
1981-08-28 04:02:06.240 ,3,0,0.,12.0,0.,12.0,0.,12.0,0.,12.0
1981-08-28 04:02:18.240 ,3,0,0.,12.0,0.,12.0,0.,12.0,0.,12.0
1981-08-28 04:02:30.240 ,2,0,0.,12.0,0.,12.0,0.,12.0,0.,12.0
1981-08-28 04:02:42.240 ,2,0,0.,12.0,0.,12.0,0.,12.0,0.,12.0
1981-08-28 04:02:54.240 ,2,0,0.,12.0,0.,12.0,0.,12.0,0.,12.0
1981-08-28 04:03:06.240 ,2,0,0.,12.0,0.,12.0,0.,12.0,0.,12.0
1981-08-28 04:03:18.240 ,1,0,0.,12.0,0.,12.0,0.,12.0,0.,12.0
1981-08-28 04:03:30.240 ,1,0,0.,12.0,0.,12.0,0.,12.0,0.,12.0
1981-08-28 04:03:42.240 ,1,0,0.,12.0,0.,12.0,0.,12.0,0.,12.0
1981-08-28 04:03:54.240 ,1,0,0.,12.0,0.,12.0,0.,12.0,0.,12.0
1981-08-28 04:04:54.240 ,0,0,0.,12.0,0.,12.0,0.,12.0,0.,12.0
1981-08-28 04:05:06.240 ,0,0,0.,12.0,0.,12.0,0.,12.0,0.,12.0
1981-08-28 04:05:18.240 ,0,0,0.,12.0,0.,12.0,0.,12.0,0.,12.0
1981-08-28 04:05:30.240 ,0,0,0.,12.0,0.,12.0,0.,12.0,0.,12.0
1981-08-28 04:05:42.240 ,1,0,0.,12.0,0.,12.0,0.,12.0,0.,12.0
1981-08-28 04:05:54.240 ,1,0,0.,12.0,0.,12.0,0.,12.0,0.,12.0
1981-08-28 04:06:06.240 ,1,0,0.,12.0,0.,12.0,0.,12.0,0.,12.0
1981-08-28 04:06:18.240 ,1,0,0.,12.0,0.,12.0,0.,12.0,0.,12.0
1981-08-28 04:06:30.240 ,2,0,0.,12.0,0.,12.0,0.,12.0,0.,12.0
1981-08-28 04:06:42.240 ,2,0,0.,12.0,0.,12.0,0.,12.0,0.,12.0
1981-08-28 04:06:54.240 ,2,0,0.,12.0,0.,12.0,0.,12.0,0.,12.0
1981-08-28 04:07:06.240 ,2,0,0.,12.0,0.,12.0,0.,12.0,0.,12.0
1981-08-28 04:08:06.240 ,0,0,0.,12.0,0.,12.0,0.,12.0,0.,12.0
1981-08-28 04:08:18.240 ,0,0,0.,12.0,0.,12.0,0.,12.0,0.,12.0
1981-08-28 04:08:30.240 ,0,0,0.,12.0,0.,12.0,0.,12.0,0.,12.0
1981-08-28 04:08:42.240 ,0,0,0.,12.0,0.,12.0,0.,12.0,0.,12.0
1981-08-28 04:08:54.240 ,5,0,0.,12.0,0.,12.0,0.,12.0,0.,12.0
1981-08-28 04:09:06.240 ,5,0,0.,12.0,0.,12.0,0.,12.0,0.,12.0
1981-08-28 04:09:18.240 ,5,0,0.,12.0,0.,12.0,0.,12.0,0.,12.0
1981-08-28 04:09:30.240 ,5,0,0.,12.0,0.,12.0,0.,12.0,0.,12.0
1981-08-28 04:09:42.240 ,6,0,0.,12.0,0.,12.0,0.,12.0,0.,12.0
1981-08-28 04:09:54.240 ,6,0,0.,12.0,0.,12.0,0.,12.0,0.,12.0
1981-08-28 04:10:06.240 ,6,0,0.,12.0,0.,12.0,0.,12.0,0.,12.0
1981-08-28 04:10:18.240 ,6,0,0.,12.0,0.,12.0,0.,12.0,0.,12.0
1981-08-28 04:10:30.240 ,7,0,0.,12.0,0.,12.0,0.,12.0,0.,12.0
1981-08-28 04:10:42.240 ,7,0,0.,12.0,0.,12.0,0.,12.0,0.,12.0
1981-08-28 04:10:54.240 ,7,0,0.,12.0,0.,12.0,0.,12.0,0.,12.0
1981-08-28 04:11:06.240 ,7,0,0.,12.0,0.,12.0,0.,12.0,0.,12.0
1981-08-28 04:11:18.240 ,7,0,0.,12.0,0.,12.0,0.,12.0,0.,12.0
1981-08-28 04:11:30.240 ,7,0,0.,12.0,0.,12.0,0.,12.0,0.,12.0
1981-08-28 04:11:42.240 ,6,0,0.,12.0,0.,12.0,0.,12.0,0.,12.0
1981-08-28 04:11:54.240 ,6,0,0.,12.0,0.,12.0,0.,12.0,0.,12.0
1981-08-28 04:12:06.240 ,5,0,0.,12.0,0.,12.0,0.,12.0,0.,12.0
1981-08-28 04:12:18.240 ,5,0,0.,12.0,0.,12.0,0.,12.0,0.,12.0
1981-08-28 04:12:30.240 ,4,0,0.,12.0,0.,12.0,0.,12.0,0.,12.0
1981-08-28 04:12:42.240 ,4,0,0.,12.0,0.,12.0,0.,12.0,0.,12.0
1981-08-28 04:12:54.240 ,3,0,0.,12.0,0.,12.0,0.,12.0,0.,12.0
1981-08-28 04:13:06.240 ,3,0,0.,12.0,0.,12.0,0.,12.0,0.,12.0
1981-08-28 04:13:18.240 ,2,0,0.,12.0,0.,12.0,0.,12.0,0.,12.0
1981-08-28 04:13:30.240 ,2,0,0.,12.0,0.,12.0,0.,12.0,0.,12.0
1981-08-28 04:13:42.240 ,1,0,0.,12.0,0.,12.0,0.,12.0,0.,12.0
1981-08-28 04:13:54.240 ,1,0,0.,12.0,0.,12.0,0.,12.0,0.,12.0
1981-08-28 04:14:06.240 ,0,0,0.,12.0,0.,12.0,0.,12.0,0.,12.0
1981-08-28 04:14:18.240 ,0,0,0.,12.0,0.,12.0,0.,12.0,0.,12.0
1981-08-28 04:14:30.240 ,0,0,0.,12.0,0.,12.0,0.,12.0,0.,12.0
1981-08-28 04:14:42.240 ,0,0,0.,12.0,0.,12.0,0.,12.0,0.,12.0
1981-08-28 04:14:54.240 ,1,0,0.,12.0,0.,12.0,0.,12.0,0.,12.0
1981-08-28 04:15:06.240 ,1,0,0.,12.0,0.,12.0,0.,12.0,0.,12.0
1981-08-28 04:15:18.240 ,2,0,0.,12.0,0.,12.0,0.,12.0,0.,12.0
1981-08-28 04:15:30.240 ,2,0,0.,12.0,0.,12.0,0.,12.0,0.,12.0
1981-08-28 04:15:42.240 ,3,0,0.,12.0,0.,12.0,0.,12.0,0.,12.0
1981-08-28 04:15:54.240 ,3,0,0.,12.0,0.,12.0,0.,12.0,0.,12.0
1981-08-28 04:16:06.240 ,4,0,0.,12.0,0.,12.0,0.,12.0,0.,12.0
1981-08-28 04:16:18.240 ,4,0,0.,12.0,0.,12.0,0.,12.0,0.,12.0
1981-08-28 04:16:30.240 ,5,0,0.,12.0,0.,12.0,0.,12.0,0.,12.0
1981-08-28 04:16:42.240 ,5,0,0.,12.0,0.,12.0,0.,12.0,0.,12.0
1981-08-28 04:16:54.240 ,6,0,0.,12.0,0.,12.0,0.,12.0,0.,12.0
1981-08-28 04:17:06.240 ,6,0,0.,12.0,0.,12.0,0.,12.0,0.,12.0
1981-08-28 04:17:18.240 ,7,0,0.,12.0,0.,12.0,0.,12.0,0.,12.0
1981-08-28 04:17:30.240 ,7,0,0.,12.0,0.,12.0,0.,12.0,0.,12.0
1981-08-28 04:17:42.240 ,7,0,0.,12.0,0.,12.0,0.,12.0,0.,12.0
1981-08-28 04:17:54.240 ,7,0,0.,12.0,0.,12.0,0.,12.0,0.,12.0
1981-08-28 04:18:06.240 ,7,0,0.,12.0,0.,12.0,0.,12.0,0.,12.0
1981-08-28 04:18:18.240 ,7,0,0.,12.0,0.,12.0,0.,12.0,0.,12.0
1981-08-28 04:18:30.240 ,6,0,0.,12.0,0.,12.0,0.,12.0,0.,12.0
1981-08-28 04:18:42.240 ,6,0,0.,12.0,0.,12.0,0.,12.0,0.,12.0
1981-08-28 04:18:54.240 ,6,0,0.,12.0,0.,12.0,0.,12.0,0.,12.0
1981-08-28 04:19:06.240 ,6,0,0.,12.0,0.,12.0,0.,12.0,0.,12.0
1981-08-28 04:19:18.240 ,5,0,0.,12.0,0.,12.0,0.,12.0,0.,12.0
1981-08-28 04:19:30.240 ,5,0,0.,12.0,0.,12.0,0.,12.0,0.,12.0
1981-08-28 04:19:42.240 ,5,0,0.,12.0,0.,12.0,0.,12.0,0.,12.0
1981-08-28 04:19:54.240 ,5,0,0.,12.0,0.,12.0,0.,12.0,0.,12.0
1981-08-28 04:20:06.240 ,4,0,0.,12.0,0.,12.0,0.,12.0,0.,12.0
1981-08-28 04:20:18.240 ,4,0,0.,12.0,0.,12.0,0.,12.0,0.,12.0
1981-08-28 04:20:30.240 ,4,0,0.,12.0,0.,12.0,0.,12.0,0.,12.0
1981-08-28 04:20:42.240 ,4,0,0.,12.0,0.,12.0,0.,12.0,0.,12.0
1981-08-28 04:20:54.240 ,3,0,0.,12.0,0.,12.0,0.,12.0,0.,12.0
1981-08-28 04:21:06.240 ,3,0,0.,12.0,0.,12.0,0.,12.0,0.,12.0
1981-08-28 04:21:18.240 ,3,0,0.,12.0,0.,12.0,0.,12.0,0.,12.0
1981-08-28 04:21:30.240 ,3,0,0.,12.0,0.,12.0,0.,12.0,0.,12.0
1981-08-28 04:21:42.240 ,2,0,0.,12.0,0.,12.0,0.,12.0,0.,12.0
1981-08-28 04:21:54.240 ,2,0,0.,12.0,0.,12.0,0.,12.0,0.,12.0
1981-08-28 04:22:06.240 ,2,0,0.,12.0,0.,12.0,0.,12.0,0.,12.0
1981-08-28 04:22:18.240 ,2,0,0.,12.0,0.,12.0,0.,12.0,0.,12.0
1981-08-28 04:22:30.240 ,1,0,0.,12.0,0.,12.0,0.,12.0,0.,12.0
1981-08-28 04:22:42.240 ,1,0,0.,12.0,0.,12.0,0.,12.0,0.,12.0
1981-08-28 04:22:54.240 ,1,0,0.,12.0,0.,12.0,0.,12.0,0.,12.0
1981-08-28 04:23:06.240 ,1,0,0.,12.0,0.,12.0,0.,12.0,0.,12.0
1981-08-28 04:23:18.240 ,0,0,0.,12.0,0.,12.0,0.,12.0,0.,12.0
1981-08-28 04:23:30.240 ,0,0,0.,12.0,0.,12.0,0.,12.0,0.,12.0
1981-08-28 04:23:42.240 ,0,0,0.,12.0,0.,12.0,0.,12.0,0.,12.0
1981-08-28 04:23:54.240 ,0,0,0.,12.0,0.,12.0,0.,12.0,0.,12.0
1981-08-28 04:24:06.240 ,0,0,0.,12.0,0.,12.0,0.,12.0,0.,12.0
1981-08-28 04:24:18.240 ,0,0,0.,12.0,0.,12.0,0.,12.0,0.,12.0
1981-08-28 04:24:30.240 ,0,0,0.,12.0,0.,12.0,0.,12.0,0.,12.0
1981-08-28 04:24:42.240 ,0,0,0.,12.0,0.,12.0,0.,12.0,0.,12.0
1981-08-28 04:24:54.240 ,1,0,0.,12.0,0.,12.0,0.,12.0,0.,12.0
1981-08-28 04:25:06.240 ,1,0,0.,12.0,0.,12.0,0.,12.0,0.,12.0
1981-08-28 04:25:18.240 ,1,0,0.,12.0,0.,12.0,0.,12.0,0.,12.0
1981-08-28 04:25:30.240 ,1,0,0.,12.0,0.,12.0,0.,12.0,0.,12.0
1981-08-28 04:25:42.240 ,2,0,0.,12.0,0.,12.0,0.,12.0,0.,12.0
1981-08-28 04:25:54.240 ,2,0,0.,12.0,0.,12.0,0.,12.0,0.,12.0
1981-08-28 04:26:06.240 ,2,0,0.,12.0,0.,12.0,0.,12.0,0.,12.0
1981-08-28 04:26:18.240 ,2,0,0.,12.0,0.,12.0,0.,12.0,0.,12.0
1981-08-28 04:26:30.240 ,3,0,0.,12.0,0.,12.0,0.,12.0,0.,12.0
1981-08-28 04:26:42.240 ,3,0,0.,12.0,0.,12.0,0.,12.0,0.,12.0
1981-08-28 04:26:54.240 ,3,0,0.,12.0,0.,12.0,0.,12.0,0.,12.0
1981-08-28 04:27:06.240 ,3,0,0.,12.0,0.,12.0,0.,12.0,0.,12.0
1981-08-28 04:27:18.240 ,4,0,0.,12.0,0.,12.0,0.,12.0,0.,12.0
1981-08-28 04:27:30.240 ,4,0,0.,12.0,0.,12.0,0.,12.0,0.,12.0
1981-08-28 04:27:42.240 ,4,0,0.,12.0,0.,12.0,0.,12.0,0.,12.0
1981-08-28 04:27:54.240 ,4,0,0.,12.0,0.,12.0,0.,12.0,0.,12.0
1981-08-28 04:28:06.240 ,5,0,0.,12.0,0.,12.0,0.,12.0,0.,12.0
1981-08-28 04:28:18.240 ,5,0,0.,12.0,0.,12.0,0.,12.0,0.,12.0
1981-08-28 04:28:30.240 ,5,0,0.,12.0,0.,12.0,0.,12.0,0.,12.0
1981-08-28 04:28:42.240 ,5,0,0.,12.0,0.,12.0,0.,12.0,0.,12.0
1981-08-28 04:28:54.240 ,6,0,1.,12.0,0.,12.0,0.,12.0,0.,12.0
1981-08-28 04:29:06.240 ,6,0,0.,12.0,0.,12.0,0.,12.0,0.,12.0
1981-08-28 04:29:18.240 ,6,0,0.,12.0,0.,12.0,0.,12.0,0.,12.0
1981-08-28 04:29:30.240 ,6,0,0.,12.0,0.,12.0,0.,12.0,0.,12.0
1981-08-28 04:29:42.240 ,7,0,0.,12.0,0.,12.0,0.,12.0,0.,12.0
1981-08-28 04:29:54.240 ,7,0,0.,12.0,0.,12.0,0.,12.0,0.,12.0
1981-08-28 04:30:06.240 ,7,0,0.,12.0,0.,12.0,0.,12.0,0.,12.0
1981-08-28 04:30:18.240 ,7,0,0.,12.0,0.,12.0,0.,12.0,0.,12.0